Location: Radford
(37.1320°N, 80.5770°W)
Time: 23:31:08
(UTC-05:00)

Daily predictions for brighter satellites

Satellite Brightness Start Highest point End
(mag) Time Altitude Azimuth Time Altitude Azimuth Time Altitude Azimuth
Cosmos 1992 Rocket 4.0 18:30:50 10° NNW 18:36:04 67° ENE 18:41:15 10° SSE
FREGAT/IRIS 3.9 18:33:59 10° SE 18:36:28 23° ENE 18:38:58 10° NNE
Cosmos 407 Rocket 3.8 18:31:47 10° S 18:36:42 44° ESE 18:41:43 10° NNE
Meteor 1-25 Rocket 4.2 18:35:54 10° S 18:41:24 65° E 18:47:01 10° NNE
ALOS 3.3 18:37:40 10° ESE 18:41:26 25° ENE 18:45:12 10° NNE
ERBS 2.7 18:38:47 10° NW 18:42:14 70° SW 18:45:40 10° SSE
FENGYUN 3A 4.5 18:38:34 10° SE 18:43:07 28° ENE 18:47:41 10° N
Cosmos 1346 Rocket 3.3 18:39:56 10° NNW 18:43:50 64° W 18:47:41 10° S
deb Kosmos-1763 4.1 18:45:03 10° S 18:48:49 69° ESE 18:52:36 10° NNE
H-2A R/B 4.3 18:47:29 10° ESE 18:49:42 15° ENE 18:51:55 10° NNE
Cosmos 1975 Rocket 3.3 18:45:48 10° N 18:50:07 73° W 18:54:25 10° S
SKYMED 2 4.5 18:46:30 10° N 18:50:44 53° WNW 18:54:57 10° SSW
Cosmos 1238 Rocket 3.9 18:54:29 10° NE 18:55:56 15° ENE 18:55:56 15° ENE
Cosmos 1812 2.6 18:55:44 10° N 18:59:37 78° E 19:03:27 10° S
Cosmos 1190 Rocket 4.0 18:56:03 10° SSW 19:01:14 89° WNW 19:06:28 10° NNE
Helios 1B rocket 4.0 19:02:24 16° E 19:02:24 16° E 19:04:54 10° SE
Cosmos 1140 Rocket 4.1 19:00:21 10° SSE 19:04:51 32° E 19:09:23 10° NE
Cosmos 2219 4.5 19:04:31 10° SE 19:08:20 18° E 19:09:25 17° E
Cosmos 1536 Rocket 3.7 19:04:36 10° N 19:08:58 52° E 19:13:19 10° SSE
Nadezhda 1 Rocket 4.1 19:04:17 10° N 19:10:22 78° W 19:16:24 10° S
Spot 2 Rocket 3.9 19:07:31 10° SE 19:12:11 40° ENE 19:16:53 10° N
METEOR-M 4.2 19:07:03 10° S 19:12:23 81° WSW 19:17:45 10° NNW
NOAA 12 4.3 19:07:24 10° S 19:12:42 79° WSW 19:18:03 10° NNW
Cosmos 44 Rocket 4.2 19:09:31 10° NW 19:14:05 48° WSW 19:18:33 10° S
Resurs 01 Rocket 2.0 19:10:52 10° SE 19:14:59 41° ENE 19:19:07 10° N
Cosmos 2360 Rocket 2.9 19:10:17 10° N 19:15:22 33° ENE 19:18:45 18° ESE
Cosmos 1980 Rocket 4.2 19:11:04 10° NW 19:15:59 31° WSW 19:20:53 10° SSW
DNEPR-1 R/B 3.4 19:11:50 10° NNW 19:16:03 67° ENE 19:20:17 10° SE
GEOS 3 Rocket 3.8 19:13:49 10° NNE 19:19:04 77° NW 19:24:20 10° SW
Cosmos 2181 Rocket 4.1 19:15:27 10° N 19:21:34 55° E 19:27:44 10° SSE
Cosmos 1602 3.8 19:17:58 10° S 19:21:43 53° E 19:25:31 10° NNE
Tiangong 2 1.5 19:19:01 10° WNW 19:22:00 46° NNE 19:22:43 37° ENE
CENTAUR R/B 4.0 19:14:41 10° NW 19:22:24 52° WSW 19:30:26 10° S
SL-19 R/B 4.3 19:18:12 10° SSE 19:23:40 59° ENE 19:29:26 10° N
ATLAS CENTAUR R/B 3.9 19:25:19 10° S 19:27:49 14° SE 19:27:49 14° SE
Cosmos 1954 Rocket 3.9 19:24:22 10° SSW 19:29:30 78° ESE 19:34:44 10° NNE
HJ-1C 3.2 19:26:18 10° SSE 19:29:40 84° ENE 19:33:03 10° N
Cosmos 1833 4.1 19:27:06 10° SSW 19:32:48 77° ESE 19:38:28 10° NNE
Cosmos 1633 2.5 19:32:57 10° S 19:36:38 86° W 19:40:20 10° N
SJ-6B 3.9 19:33:20 10° S 19:37:15 48° W 19:41:08 10° NNW
Cosmos 44 4.3 19:34:16 10° NW 19:38:23 41° WSW 19:42:24 10° S
Cosmos 1300 Rocket 3.4 19:35:05 10° S 19:39:29 85° E 19:43:56 10° N
Cosmos 2184 Rocket 4.3 19:33:42 10° SSE 19:39:36 43° E 19:45:28 10° NNE
Cosmos 2333 Rocket 4.3 19:37:52 10° NNE 19:38:32 11° NE 19:38:32 11° NE
Cosmos 2074 Rocket 4.2 19:34:12 10° SSE 19:40:04 45° E 19:45:58 10° NNE
Resurs 1-3 3.5 19:35:48 10° SSE 19:40:08 66° ENE 19:44:30 10° N
TSX-5 3.8 19:37:04 10° SW 19:40:15 57° WNW 19:41:57 24° N
Cosmos 1709 Rocket 4.2 19:35:04 10° SSW 19:41:19 74° W 19:47:30 10° N
FengYun 1-2 T 4.2 19:36:53 10° SSE 19:42:21 84° WSW 19:47:52 10° NNW
ASTRO E2 4.5 19:42:26 10° WSW 19:45:38 23° SSW 19:46:55 19° SSE
Gbstr 26 Del rocket 2.6 19:43:38 10° SW 19:47:21 62° SE 19:47:21 62° SE
SL-16 R/B 3.1 19:42:26 10° NNW 19:47:53 49° WSW 19:53:18 10° S
Meteor 1-19 Rocket 4.1 19:45:06 10° N 19:50:47 82° E 19:56:33 10° S
Meteor 1-5 Rocket 4.3 19:53:45 10° S 19:59:33 55° E 20:05:21 10° NNE
Cosmos 1340 3.6 19:56:05 10° NNW 19:59:46 49° W 20:03:24 10° S
Cosmos 1536 2.8 19:57:35 10° S 20:01:13 73° SSW 20:01:13 73° SSW
Cosmos 1461 3.9 19:59:06 10° NW 20:02:55 43° WSW 20:04:50 25° S
Cosmos 2322 Rocket 3.9 20:01:28 10° NW 20:06:23 32° WSW 20:11:18 10° SSW
Cosmos 1741 Rocket 3.8 20:03:03 10° SSW 20:08:17 80° ESE 20:09:41 50° NNE
Okean 1 Rocket 3.6 20:03:58 10° SSW 20:08:23 60° W 20:12:50 10° N
Helios 1A 3.4 20:11:47 54° NNW 20:11:47 54° NNW 20:15:03 10° NNW
OAO 3 Copernicus 4.4 20:05:56 10° W 20:10:57 63° S 20:11:09 62° S
CZ-2D R/B 3.9 20:12:51 54° WNW 20:12:51 54° WNW 20:16:09 10° NNW
DELTA 2 R/B (1) 3.4 20:11:47 10° WNW 20:17:26 90° S 20:17:41 82° ESE
Cosmos 2322 3.6 20:11:53 10° NNW 20:17:38 84° WSW 20:18:56 55° SSE
ATLAS 2A CENTAUR R/B 3.9 20:14:49 10° SW 20:18:14 24° S 20:18:32 24° SSE
Meteor 1-23 Rocket 4.1 20:12:40 10° N 20:18:31 82° E 20:19:24 65° SSE
ALOS 4.2 20:14:40 10° SSW 20:18:43 29° W 20:22:48 10° NW
Cosmos 1570 Rocket 4.3 20:17:33 10° NNW 20:21:41 55° N 20:21:41 55° N
Okean 1-7 Rocket 4.2 20:21:02 10° NNW 20:24:48 54° NW 20:24:48 54° NW
Meteor 2-4 Rocket 4.0 20:23:23 10° NNW 20:28:53 64° W 20:31:01 36° SSW
COSMOS 2428 3.3 20:23:54 10° NNW 20:27:55 44° N 20:27:55 44° N
Cosmos 2237 4.3 20:24:29 10° NNW 20:29:27 66° N 20:29:27 66° N
Helios 1B rocket 4.2 20:38:47 30° WSW 20:38:47 30° WSW 20:41:31 10° SW
Cosmos 2237 Rocket 4.4 20:37:06 10° N 20:37:59 14° N 20:37:59 14° N
Resurs 01 Rocket 4.4 20:48:57 10° SW 20:51:37 16° W 20:54:16 10° NW
Cosmos 2219 3.8 20:46:20 10° SW 20:51:31 54° W 20:51:31 54° W
Cosmos 2360 Rocket 3.8 20:54:20 10° NW 20:59:14 31° WSW 21:00:38 28° SW
Cosmos 2219 Rocket 4.1 20:57:50 10° NNW 20:59:35 21° NNW 20:59:35 21° NNW
Cosmos 2333 Rocket 4.5 21:19:21 10° NNW 21:20:34 17° NNW 21:20:34 17° NNW
